Index of /20260430/WXO-DD/model_gdps/15km/00/039
Name Last modified Size Description
Parent Directory -
20260430T00Z_MSC_GDPS_AbsoluteVorticity_IsbL-0200_LatLon0.15_PT039H.grib2 2026-04-30 04:05 1.5M
20260430T00Z_MSC_GDPS_AbsoluteVorticity_IsbL-0250_LatLon0.15_PT039H.grib2 2026-04-30 04:05 1.3M
20260430T00Z_MSC_GDPS_AbsoluteVorticity_IsbL-0500_LatLon0.15_PT039H.grib2 2026-04-30 04:05 1.4M
20260430T00Z_MSC_GDPS_AbsoluteVorticity_IsbL-0700_LatLon0.15_PT039H.grib2 2026-04-30 04:05 1.6M
20260430T00Z_MSC_GDPS_AbsoluteVorticity_IsbL-0850_LatLon0.15_PT039H.grib2 2026-04-30 04:05 1.6M
20260430T00Z_MSC_GDPS_AirTemp_AGL-120m_LatLon0.15_PT039H.grib2 2026-04-30 04:05 794K
20260430T00Z_MSC_GDPS_AirTemp_AGL-2m_LatLon0.15_PT039H.grib2 2026-04-30 04:05 1.0M
20260430T00Z_MSC_GDPS_AirTemp_AGL-40m_LatLon0.15_PT039H.grib2 2026-04-30 04:05 814K
20260430T00Z_MSC_GDPS_AirTemp_AGL-80m_LatLon0.15_PT039H.grib2 2026-04-30 04:05 802K
20260430T00Z_MSC_GDPS_AirTemp_IsbL-0001_LatLon0.15_PT039H.grib2 2026-04-30 04:05 660K
20260430T00Z_MSC_GDPS_AirTemp_IsbL-0005_LatLon0.15_PT039H.grib2 2026-04-30 04:05 688K
20260430T00Z_MSC_GDPS_AirTemp_IsbL-0010_LatLon0.15_PT039H.grib2 2026-04-30 04:05 760K
20260430T00Z_MSC_GDPS_AirTemp_IsbL-0020_LatLon0.15_PT039H.grib2 2026-04-30 04:05 787K
20260430T00Z_MSC_GDPS_AirTemp_IsbL-0030_LatLon0.15_PT039H.grib2 2026-04-30 04:05 754K
20260430T00Z_MSC_GDPS_AirTemp_IsbL-0050_LatLon0.15_PT039H.grib2 2026-04-30 04:05 805K
20260430T00Z_MSC_GDPS_AirTemp_IsbL-0100_LatLon0.15_PT039H.grib2 2026-04-30 04:05 960K
20260430T00Z_MSC_GDPS_AirTemp_IsbL-0150_LatLon0.15_PT039H.grib2 2026-04-30 04:05 1.0M
20260430T00Z_MSC_GDPS_AirTemp_IsbL-0175_LatLon0.15_PT039H.grib2 2026-04-30 04:05 961K
20260430T00Z_MSC_GDPS_AirTemp_IsbL-0200_LatLon0.15_PT039H.grib2 2026-04-30 04:05 1.0M
20260430T00Z_MSC_GDPS_AirTemp_IsbL-0225_LatLon0.15_PT039H.grib2 2026-04-30 04:05 1.0M
20260430T00Z_MSC_GDPS_AirTemp_IsbL-0250_LatLon0.15_PT039H.grib2 2026-04-30 04:05 1.0M
20260430T00Z_MSC_GDPS_AirTemp_IsbL-0275_LatLon0.15_PT039H.grib2 2026-04-30 04:05 1.0M
20260430T00Z_MSC_GDPS_AirTemp_IsbL-0300_LatLon0.15_PT039H.grib2 2026-04-30 04:05 947K
20260430T00Z_MSC_GDPS_AirTemp_IsbL-0350_LatLon0.15_PT039H.grib2 2026-04-30 04:05 930K
20260430T00Z_MSC_GDPS_AirTemp_IsbL-0400_LatLon0.15_PT039H.grib2 2026-04-30 04:05 938K
20260430T00Z_MSC_GDPS_AirTemp_IsbL-0450_LatLon0.15_PT039H.grib2 2026-04-30 04:05 958K
20260430T00Z_MSC_GDPS_AirTemp_IsbL-0500_LatLon0.15_PT039H.grib2 2026-04-30 04:05 762K
20260430T00Z_MSC_GDPS_AirTemp_IsbL-0550_LatLon0.15_PT039H.grib2 2026-04-30 04:05 799K
20260430T00Z_MSC_GDPS_AirTemp_IsbL-0600_LatLon0.15_PT039H.grib2 2026-04-30 04:05 897K
20260430T00Z_MSC_GDPS_AirTemp_IsbL-0650_LatLon0.15_PT039H.grib2 2026-04-30 04:05 927K
20260430T00Z_MSC_GDPS_AirTemp_IsbL-0700_LatLon0.15_PT039H.grib2 2026-04-30 04:05 960K
20260430T00Z_MSC_GDPS_AirTemp_IsbL-0750_LatLon0.15_PT039H.grib2 2026-04-30 04:05 1.0M
20260430T00Z_MSC_GDPS_AirTemp_IsbL-0800_LatLon0.15_PT039H.grib2 2026-04-30 04:05 1.1M
20260430T00Z_MSC_GDPS_AirTemp_IsbL-0850_LatLon0.15_PT039H.grib2 2026-04-30 04:05 1.1M
20260430T00Z_MSC_GDPS_AirTemp_IsbL-0875_LatLon0.15_PT039H.grib2 2026-04-30 04:05 1.2M
20260430T00Z_MSC_GDPS_AirTemp_IsbL-0900_LatLon0.15_PT039H.grib2 2026-04-30 04:05 1.1M
20260430T00Z_MSC_GDPS_AirTemp_IsbL-0925_LatLon0.15_PT039H.grib2 2026-04-30 04:05 1.1M
20260430T00Z_MSC_GDPS_AirTemp_IsbL-0950_LatLon0.15_PT039H.grib2 2026-04-30 04:05 1.1M
20260430T00Z_MSC_GDPS_AirTemp_IsbL-0970_LatLon0.15_PT039H.grib2 2026-04-30 04:05 1.2M
20260430T00Z_MSC_GDPS_AirTemp_IsbL-0985_LatLon0.15_PT039H.grib2 2026-04-30 04:05 1.2M
20260430T00Z_MSC_GDPS_AirTemp_IsbL-1000_LatLon0.15_PT039H.grib2 2026-04-30 04:05 1.1M
20260430T00Z_MSC_GDPS_AirTemp_IsbL-1015_LatLon0.15_PT039H.grib2 2026-04-30 04:05 1.1M
20260430T00Z_MSC_GDPS_Albedo_Sfc_LatLon0.15_PT039H.grib2 2026-04-30 04:05 241K
20260430T00Z_MSC_GDPS_CAPE_Sfc_LatLon0.15_PT039H.grib2 2026-04-30 04:05 4.0M
20260430T00Z_MSC_GDPS_CIN_Sfc_LatLon0.15_PT039H.grib2 2026-04-30 04:05 3.0M
20260430T00Z_MSC_GDPS_CloudWater_EAtm_LatLon0.15_PT039H.grib2 2026-04-30 04:05 535K
20260430T00Z_MSC_GDPS_ConvectivePrecip-Accum_Sfc_LatLon0.15_PT039H.grib2 2026-04-30 04:05 2.7M
20260430T00Z_MSC_GDPS_DewPointDepression_AGL-2m_LatLon0.15_PT039H.grib2 2026-04-30 04:05 766K
20260430T00Z_MSC_GDPS_DewPointDepression_IsbL-0010_LatLon0.15_PT039H.grib2 2026-04-30 04:05 60K
20260430T00Z_MSC_GDPS_DewPointDepression_IsbL-0020_LatLon0.15_PT039H.grib2 2026-04-30 04:05 64K
20260430T00Z_MSC_GDPS_DewPointDepression_IsbL-0030_LatLon0.15_PT039H.grib2 2026-04-30 04:05 71K
20260430T00Z_MSC_GDPS_DewPointDepression_IsbL-0050_LatLon0.15_PT039H.grib2 2026-04-30 04:05 373K
20260430T00Z_MSC_GDPS_DewPointDepression_IsbL-0100_LatLon0.15_PT039H.grib2 2026-04-30 04:05 415K
20260430T00Z_MSC_GDPS_DewPointDepression_IsbL-0150_LatLon0.15_PT039H.grib2 2026-04-30 04:05 470K
20260430T00Z_MSC_GDPS_DewPointDepression_IsbL-0175_LatLon0.15_PT039H.grib2 2026-04-30 04:05 564K
20260430T00Z_MSC_GDPS_DewPointDepression_IsbL-0200_LatLon0.15_PT039H.grib2 2026-04-30 04:05 686K
20260430T00Z_MSC_GDPS_DewPointDepression_IsbL-0225_LatLon0.15_PT039H.grib2 2026-04-30 04:05 792K
20260430T00Z_MSC_GDPS_DewPointDepression_IsbL-0250_LatLon0.15_PT039H.grib2 2026-04-30 04:05 875K
20260430T00Z_MSC_GDPS_DewPointDepression_IsbL-0275_LatLon0.15_PT039H.grib2 2026-04-30 04:05 887K
20260430T00Z_MSC_GDPS_DewPointDepression_IsbL-0300_LatLon0.15_PT039H.grib2 2026-04-30 04:05 926K
20260430T00Z_MSC_GDPS_DewPointDepression_IsbL-0350_LatLon0.15_PT039H.grib2 2026-04-30 04:05 952K
20260430T00Z_MSC_GDPS_DewPointDepression_IsbL-0400_LatLon0.15_PT039H.grib2 2026-04-30 04:05 1.0M
20260430T00Z_MSC_GDPS_DewPointDepression_IsbL-0450_LatLon0.15_PT039H.grib2 2026-04-30 04:05 1.0M
20260430T00Z_MSC_GDPS_DewPointDepression_IsbL-0500_LatLon0.15_PT039H.grib2 2026-04-30 04:05 1.0M
20260430T00Z_MSC_GDPS_DewPointDepression_IsbL-0550_LatLon0.15_PT039H.grib2 2026-04-30 04:05 1.0M
20260430T00Z_MSC_GDPS_DewPointDepression_IsbL-0600_LatLon0.15_PT039H.grib2 2026-04-30 04:05 1.0M
20260430T00Z_MSC_GDPS_DewPointDepression_IsbL-0650_LatLon0.15_PT039H.grib2 2026-04-30 04:05 1.1M
20260430T00Z_MSC_GDPS_DewPointDepression_IsbL-0700_LatLon0.15_PT039H.grib2 2026-04-30 04:05 1.1M
20260430T00Z_MSC_GDPS_DewPointDepression_IsbL-0750_LatLon0.15_PT039H.grib2 2026-04-30 04:05 1.1M
20260430T00Z_MSC_GDPS_DewPointDepression_IsbL-0800_LatLon0.15_PT039H.grib2 2026-04-30 04:05 1.2M
20260430T00Z_MSC_GDPS_DewPointDepression_IsbL-0850_LatLon0.15_PT039H.grib2 2026-04-30 04:05 1.2M
20260430T00Z_MSC_GDPS_DewPointDepression_IsbL-0875_LatLon0.15_PT039H.grib2 2026-04-30 04:05 1.1M
20260430T00Z_MSC_GDPS_DewPointDepression_IsbL-0900_LatLon0.15_PT039H.grib2 2026-04-30 04:05 1.1M
20260430T00Z_MSC_GDPS_DewPointDepression_IsbL-0925_LatLon0.15_PT039H.grib2 2026-04-30 04:05 1.0M
20260430T00Z_MSC_GDPS_DewPointDepression_IsbL-0950_LatLon0.15_PT039H.grib2 2026-04-30 04:05 1.0M
20260430T00Z_MSC_GDPS_DewPointDepression_IsbL-0970_LatLon0.15_PT039H.grib2 2026-04-30 04:05 1.0M
20260430T00Z_MSC_GDPS_DewPointDepression_IsbL-0985_LatLon0.15_PT039H.grib2 2026-04-30 04:05 1.0M
20260430T00Z_MSC_GDPS_DewPointDepression_IsbL-1000_LatLon0.15_PT039H.grib2 2026-04-30 04:05 1.0M
20260430T00Z_MSC_GDPS_DewPointDepression_IsbL-1015_LatLon0.15_PT039H.grib2 2026-04-30 04:05 919K
20260430T00Z_MSC_GDPS_DewPoint_AGL-2m_LatLon0.15_PT039H.grib2 2026-04-30 04:05 611K
20260430T00Z_MSC_GDPS_DownwardLongwaveRadiationFlux-Accum_Sfc_LatLon0.15_PT039H.grib2 2026-04-30 04:05 745K
20260430T00Z_MSC_GDPS_DownwardShortwaveRadiationFlux-Accum_NTAtm_LatLon0.15_PT039H.grib2 2026-04-30 04:05 307K
20260430T00Z_MSC_GDPS_DownwardShortwaveRadiationFlux-Accum_Sfc_LatLon0.15_PT039H.grib2 2026-04-30 04:05 970K
20260430T00Z_MSC_GDPS_FreezingRain-Accum1h_Sfc_LatLon0.15_PT039H.grib2 2026-04-30 04:05 46K
20260430T00Z_MSC_GDPS_FreezingRain-Accum3h_Sfc_LatLon0.15_PT039H.grib2 2026-04-30 04:05 59K
20260430T00Z_MSC_GDPS_FreezingRain-Accum_Sfc_LatLon0.15_PT039H.grib2 2026-04-30 04:05 237K
20260430T00Z_MSC_GDPS_GeopotentialHeight_IsbL-0001_LatLon0.15_PT039H.grib2 2026-04-30 04:05 375K
20260430T00Z_MSC_GDPS_GeopotentialHeight_IsbL-0005_LatLon0.15_PT039H.grib2 2026-04-30 04:05 490K
20260430T00Z_MSC_GDPS_GeopotentialHeight_IsbL-0010_LatLon0.15_PT039H.grib2 2026-04-30 04:05 479K
20260430T00Z_MSC_GDPS_GeopotentialHeight_IsbL-0020_LatLon0.15_PT039H.grib2 2026-04-30 04:05 416K
20260430T00Z_MSC_GDPS_GeopotentialHeight_IsbL-0030_LatLon0.15_PT039H.grib2 2026-04-30 04:05 574K
20260430T00Z_MSC_GDPS_GeopotentialHeight_IsbL-0050_LatLon0.15_PT039H.grib2 2026-04-30 04:05 577K
20260430T00Z_MSC_GDPS_GeopotentialHeight_IsbL-0100_LatLon0.15_PT039H.grib2 2026-04-30 04:05 609K
20260430T00Z_MSC_GDPS_GeopotentialHeight_IsbL-0150_LatLon0.15_PT039H.grib2 2026-04-30 04:05 630K
20260430T00Z_MSC_GDPS_GeopotentialHeight_IsbL-0175_LatLon0.15_PT039H.grib2 2026-04-30 04:05 635K
20260430T00Z_MSC_GDPS_GeopotentialHeight_IsbL-0200_LatLon0.15_PT039H.grib2 2026-04-30 04:05 638K
20260430T00Z_MSC_GDPS_GeopotentialHeight_IsbL-0225_LatLon0.15_PT039H.grib2 2026-04-30 04:05 642K
20260430T00Z_MSC_GDPS_GeopotentialHeight_IsbL-0250_LatLon0.15_PT039H.grib2 2026-04-30 04:05 643K
20260430T00Z_MSC_GDPS_GeopotentialHeight_IsbL-0275_LatLon0.15_PT039H.grib2 2026-04-30 04:05 643K
20260430T00Z_MSC_GDPS_GeopotentialHeight_IsbL-0300_LatLon0.15_PT039H.grib2 2026-04-30 04:05 634K
20260430T00Z_MSC_GDPS_GeopotentialHeight_IsbL-0350_LatLon0.15_PT039H.grib2 2026-04-30 04:05 631K
20260430T00Z_MSC_GDPS_GeopotentialHeight_IsbL-0400_LatLon0.15_PT039H.grib2 2026-04-30 04:05 624K
20260430T00Z_MSC_GDPS_GeopotentialHeight_IsbL-0450_LatLon0.15_PT039H.grib2 2026-04-30 04:05 615K
20260430T00Z_MSC_GDPS_GeopotentialHeight_IsbL-0500_LatLon0.15_PT039H.grib2 2026-04-30 04:05 535K
20260430T00Z_MSC_GDPS_GeopotentialHeight_IsbL-0550_LatLon0.15_PT039H.grib2 2026-04-30 04:05 531K
20260430T00Z_MSC_GDPS_GeopotentialHeight_IsbL-0600_LatLon0.15_PT039H.grib2 2026-04-30 04:05 525K
20260430T00Z_MSC_GDPS_GeopotentialHeight_IsbL-0650_LatLon0.15_PT039H.grib2 2026-04-30 04:05 694K
20260430T00Z_MSC_GDPS_GeopotentialHeight_IsbL-0700_LatLon0.15_PT039H.grib2 2026-04-30 04:05 694K
20260430T00Z_MSC_GDPS_GeopotentialHeight_IsbL-0750_LatLon0.15_PT039H.grib2 2026-04-30 04:05 693K
20260430T00Z_MSC_GDPS_GeopotentialHeight_IsbL-0800_LatLon0.15_PT039H.grib2 2026-04-30 04:05 702K
20260430T00Z_MSC_GDPS_GeopotentialHeight_IsbL-0850_LatLon0.15_PT039H.grib2 2026-04-30 04:05 712K
20260430T00Z_MSC_GDPS_GeopotentialHeight_IsbL-0875_LatLon0.15_PT039H.grib2 2026-04-30 04:05 720K
20260430T00Z_MSC_GDPS_GeopotentialHeight_IsbL-0900_LatLon0.15_PT039H.grib2 2026-04-30 04:05 726K
20260430T00Z_MSC_GDPS_GeopotentialHeight_IsbL-0925_LatLon0.15_PT039H.grib2 2026-04-30 04:05 734K
20260430T00Z_MSC_GDPS_GeopotentialHeight_IsbL-0950_LatLon0.15_PT039H.grib2 2026-04-30 04:05 741K
20260430T00Z_MSC_GDPS_GeopotentialHeight_IsbL-0970_LatLon0.15_PT039H.grib2 2026-04-30 04:05 751K
20260430T00Z_MSC_GDPS_GeopotentialHeight_IsbL-0985_LatLon0.15_PT039H.grib2 2026-04-30 04:05 767K
20260430T00Z_MSC_GDPS_GeopotentialHeight_IsbL-1000_LatLon0.15_PT039H.grib2 2026-04-30 04:05 790K
20260430T00Z_MSC_GDPS_GeopotentialHeight_IsbL-1015_LatLon0.15_PT039H.grib2 2026-04-30 04:05 813K
20260430T00Z_MSC_GDPS_Humidex_Sfc_LatLon0.15_PT039H.grib2 2026-04-30 04:05 5.3M
20260430T00Z_MSC_GDPS_IcePellets-Accum1h_Sfc_LatLon0.15_PT039H.grib2 2026-04-30 04:05 12K
20260430T00Z_MSC_GDPS_IcePellets-Accum3h_Sfc_LatLon0.15_PT039H.grib2 2026-04-30 04:05 17K
20260430T00Z_MSC_GDPS_IcePellets-Accum_Sfc_LatLon0.15_PT039H.grib2 2026-04-30 04:05 49K
20260430T00Z_MSC_GDPS_KIndex_Sfc_LatLon0.15_PT039H.grib2 2026-04-30 04:05 6.5M
20260430T00Z_MSC_GDPS_LatentHeatNetFlux_Sfc_LatLon0.15_PT039H.grib2 2026-04-30 04:05 542K
20260430T00Z_MSC_GDPS_LiftedIndex-MU-VT_IsbL-0500_LatLon0.15_PT039H.grib2 2026-04-30 04:05 5.4M
20260430T00Z_MSC_GDPS_NetLongwaveRadiationFlux-Accum_Sfc_LatLon0.15_PT039H.grib2 2026-04-30 04:05 1.1M
20260430T00Z_MSC_GDPS_NetShortwaveRadiationFlux-Accum_Sfc_LatLon0.15_PT039H.grib2 2026-04-30 04:05 947K
20260430T00Z_MSC_GDPS_O3MixingRatio_Sfc_LatLon0.15_PT039H.grib2 2026-04-30 04:49 2.3M
20260430T00Z_MSC_GDPS_O3_EAtm_LatLon0.15_PT039H.grib2 2026-04-30 04:49 2.5M
20260430T00Z_MSC_GDPS_PlanetaryBoundaryLayerHeight_Sfc_LatLon0.15_PT039H.grib2 2026-04-30 04:05 2.5M
20260430T00Z_MSC_GDPS_Precip-Accum1h_Sfc_LatLon0.15_PT039H.grib2 2026-04-30 04:05 3.2M
20260430T00Z_MSC_GDPS_Precip-Accum3h_Sfc_LatLon0.15_PT039H.grib2 2026-04-30 04:05 3.5M
20260430T00Z_MSC_GDPS_Precip-Accum_Sfc_LatLon0.15_PT039H.grib2 2026-04-30 04:05 4.7M
20260430T00Z_MSC_GDPS_PrecipRate_Sfc_LatLon0.15_PT039H.grib2 2026-04-30 04:05 3.0M
20260430T00Z_MSC_GDPS_PrecipType-Instant_Sfc_LatLon0.15_PT039H.grib2 2026-04-30 04:05 1.6M
20260430T00Z_MSC_GDPS_Pressure_MSL_LatLon0.15_PT039H.grib2 2026-04-30 04:05 825K
20260430T00Z_MSC_GDPS_Pressure_PVU-1.5_LatLon0.15_PT039H.grib2 2026-04-30 04:05 5.8M
20260430T00Z_MSC_GDPS_Pressure_PVU-1_LatLon0.15_PT039H.grib2 2026-04-30 04:05 6.0M
20260430T00Z_MSC_GDPS_Pressure_PVU-2_LatLon0.15_PT039H.grib2 2026-04-30 04:05 5.6M
20260430T00Z_MSC_GDPS_Pressure_Sfc_LatLon0.15_PT039H.grib2 2026-04-30 04:05 1.1M
20260430T00Z_MSC_GDPS_RadiativeTemp_Sfc_LatLon0.15_PT039H.grib2 2026-04-30 04:05 494K
20260430T00Z_MSC_GDPS_Rain-Accum1h_Sfc_LatLon0.15_PT039H.grib2 2026-04-30 04:05 1.5M
20260430T00Z_MSC_GDPS_Rain-Accum3h_Sfc_LatLon0.15_PT039H.grib2 2026-04-30 04:05 1.7M
20260430T00Z_MSC_GDPS_Rain-Accum_Sfc_LatLon0.15_PT039H.grib2 2026-04-30 04:05 3.5M
20260430T00Z_MSC_GDPS_RelativeHumidity_AGL-2m_LatLon0.15_PT039H.grib2 2026-04-30 04:05 1.1M
20260430T00Z_MSC_GDPS_RelativeHumidity_IsbL-0010_LatLon0.15_PT039H.grib2 2026-04-30 04:05 197K
20260430T00Z_MSC_GDPS_RelativeHumidity_IsbL-0020_LatLon0.15_PT039H.grib2 2026-04-30 04:05 275K
20260430T00Z_MSC_GDPS_RelativeHumidity_IsbL-0030_LatLon0.15_PT039H.grib2 2026-04-30 04:05 269K
20260430T00Z_MSC_GDPS_RelativeHumidity_IsbL-0050_LatLon0.15_PT039H.grib2 2026-04-30 04:05 418K
20260430T00Z_MSC_GDPS_RelativeHumidity_IsbL-0100_LatLon0.15_PT039H.grib2 2026-04-30 04:05 514K
20260430T00Z_MSC_GDPS_RelativeHumidity_IsbL-0150_LatLon0.15_PT039H.grib2 2026-04-30 04:05 662K
20260430T00Z_MSC_GDPS_RelativeHumidity_IsbL-0175_LatLon0.15_PT039H.grib2 2026-04-30 04:05 773K
20260430T00Z_MSC_GDPS_RelativeHumidity_IsbL-0200_LatLon0.15_PT039H.grib2 2026-04-30 04:05 697K
20260430T00Z_MSC_GDPS_RelativeHumidity_IsbL-0225_LatLon0.15_PT039H.grib2 2026-04-30 04:05 794K
20260430T00Z_MSC_GDPS_RelativeHumidity_IsbL-0250_LatLon0.15_PT039H.grib2 2026-04-30 04:05 873K
20260430T00Z_MSC_GDPS_RelativeHumidity_IsbL-0275_LatLon0.15_PT039H.grib2 2026-04-30 04:05 893K
20260430T00Z_MSC_GDPS_RelativeHumidity_IsbL-0300_LatLon0.15_PT039H.grib2 2026-04-30 04:05 933K
20260430T00Z_MSC_GDPS_RelativeHumidity_IsbL-0350_LatLon0.15_PT039H.grib2 2026-04-30 04:05 950K
20260430T00Z_MSC_GDPS_RelativeHumidity_IsbL-0400_LatLon0.15_PT039H.grib2 2026-04-30 04:05 969K
20260430T00Z_MSC_GDPS_RelativeHumidity_IsbL-0450_LatLon0.15_PT039H.grib2 2026-04-30 04:05 1.0M
20260430T00Z_MSC_GDPS_RelativeHumidity_IsbL-0500_LatLon0.15_PT039H.grib2 2026-04-30 04:05 1.0M
20260430T00Z_MSC_GDPS_RelativeHumidity_IsbL-0550_LatLon0.15_PT039H.grib2 2026-04-30 04:05 1.0M
20260430T00Z_MSC_GDPS_RelativeHumidity_IsbL-0600_LatLon0.15_PT039H.grib2 2026-04-30 04:05 1.1M
20260430T00Z_MSC_GDPS_RelativeHumidity_IsbL-0650_LatLon0.15_PT039H.grib2 2026-04-30 04:05 1.1M
20260430T00Z_MSC_GDPS_RelativeHumidity_IsbL-0700_LatLon0.15_PT039H.grib2 2026-04-30 04:05 1.1M
20260430T00Z_MSC_GDPS_RelativeHumidity_IsbL-0750_LatLon0.15_PT039H.grib2 2026-04-30 04:05 1.2M
20260430T00Z_MSC_GDPS_RelativeHumidity_IsbL-0800_LatLon0.15_PT039H.grib2 2026-04-30 04:05 1.3M
20260430T00Z_MSC_GDPS_RelativeHumidity_IsbL-0850_LatLon0.15_PT039H.grib2 2026-04-30 04:05 1.3M
20260430T00Z_MSC_GDPS_RelativeHumidity_IsbL-0875_LatLon0.15_PT039H.grib2 2026-04-30 04:05 1.3M
20260430T00Z_MSC_GDPS_RelativeHumidity_IsbL-0900_LatLon0.15_PT039H.grib2 2026-04-30 04:05 1.3M
20260430T00Z_MSC_GDPS_RelativeHumidity_IsbL-0925_LatLon0.15_PT039H.grib2 2026-04-30 04:05 1.2M
20260430T00Z_MSC_GDPS_RelativeHumidity_IsbL-0950_LatLon0.15_PT039H.grib2 2026-04-30 04:05 1.2M
20260430T00Z_MSC_GDPS_RelativeHumidity_IsbL-0970_LatLon0.15_PT039H.grib2 2026-04-30 04:05 1.2M
20260430T00Z_MSC_GDPS_RelativeHumidity_IsbL-0985_LatLon0.15_PT039H.grib2 2026-04-30 04:05 1.2M
20260430T00Z_MSC_GDPS_RelativeHumidity_IsbL-1000_LatLon0.15_PT039H.grib2 2026-04-30 04:05 1.1M
20260430T00Z_MSC_GDPS_RelativeHumidity_IsbL-1015_LatLon0.15_PT039H.grib2 2026-04-30 04:05 1.1M
20260430T00Z_MSC_GDPS_RelativeVorticity_IsbL-0200_LatLon0.15_PT039H.grib2 2026-04-30 04:05 1.2M
20260430T00Z_MSC_GDPS_RelativeVorticity_IsbL-0250_LatLon0.15_PT039H.grib2 2026-04-30 04:05 1.3M
20260430T00Z_MSC_GDPS_RelativeVorticity_IsbL-0500_LatLon0.15_PT039H.grib2 2026-04-30 04:05 1.4M
20260430T00Z_MSC_GDPS_RelativeVorticity_IsbL-0700_LatLon0.15_PT039H.grib2 2026-04-30 04:05 1.6M
20260430T00Z_MSC_GDPS_RelativeVorticity_IsbL-0850_LatLon0.15_PT039H.grib2 2026-04-30 04:05 1.6M
20260430T00Z_MSC_GDPS_Runoff-Accum_Sfc_LatLon0.15_PT039H.grib2 2026-04-30 04:05 112K
20260430T00Z_MSC_GDPS_SensibleHeatNetFlux_Sfc_LatLon0.15_PT039H.grib2 2026-04-30 04:05 643K
20260430T00Z_MSC_GDPS_ShowalterIndex_IsbL-0500_LatLon0.15_PT039H.grib2 2026-04-30 04:05 6.2M
20260430T00Z_MSC_GDPS_Snow-Accum1h_Sfc_LatLon0.15_PT039H.grib2 2026-04-30 04:05 1.0M
20260430T00Z_MSC_GDPS_Snow-Accum3h_Sfc_LatLon0.15_PT039H.grib2 2026-04-30 04:05 1.1M
20260430T00Z_MSC_GDPS_Snow-Accum_Sfc_LatLon0.15_PT039H.grib2 2026-04-30 04:05 1.9M
20260430T00Z_MSC_GDPS_SnowDensity_Sfc_LatLon0.15_PT039H.grib2 2026-04-30 04:05 263K
20260430T00Z_MSC_GDPS_SnowDepth_Sfc_LatLon0.15_PT039H.grib2 2026-04-30 04:05 1.7M
20260430T00Z_MSC_GDPS_SoilTemp_DBS-0to10cm_LatLon0.15_PT039H.grib2 2026-04-30 04:05 506K
20260430T00Z_MSC_GDPS_SoilTemp_Sfc_LatLon0.15_PT039H.grib2 2026-04-30 04:05 583K
20260430T00Z_MSC_GDPS_SoilVolumetricIceContent_Sfc_LatLon0.15_PT039H.grib2 2026-04-30 04:05 204K
20260430T00Z_MSC_GDPS_SoilVolumetricWaterContent_DBS-0to10cm_LatLon0.15_PT039H.grib2 2026-04-30 04:05 585K
20260430T00Z_MSC_GDPS_SoilVolumetricWaterContent_DBS-0to1cm_LatLon0.15_PT039H.grib2 2026-04-30 04:05 649K
20260430T00Z_MSC_GDPS_SpecificHumidity_AGL-120m_LatLon0.15_PT039H.grib2 2026-04-30 04:05 1.1M
20260430T00Z_MSC_GDPS_SpecificHumidity_AGL-2m_LatLon0.15_PT039H.grib2 2026-04-30 04:05 1.2M
20260430T00Z_MSC_GDPS_SpecificHumidity_AGL-40m_LatLon0.15_PT039H.grib2 2026-04-30 04:05 1.1M
20260430T00Z_MSC_GDPS_SpecificHumidity_AGL-80m_LatLon0.15_PT039H.grib2 2026-04-30 04:05 1.1M
20260430T00Z_MSC_GDPS_SpecificHumidity_IsbL-0001_LatLon0.15_PT039H.grib2 2026-04-30 04:05 1.3M
20260430T00Z_MSC_GDPS_SpecificHumidity_IsbL-0005_LatLon0.15_PT039H.grib2 2026-04-30 04:05 1.2M
20260430T00Z_MSC_GDPS_SpecificHumidity_IsbL-0010_LatLon0.15_PT039H.grib2 2026-04-30 04:05 1.3M
20260430T00Z_MSC_GDPS_SpecificHumidity_IsbL-0020_LatLon0.15_PT039H.grib2 2026-04-30 04:05 1.4M
20260430T00Z_MSC_GDPS_SpecificHumidity_IsbL-0030_LatLon0.15_PT039H.grib2 2026-04-30 04:05 1.4M
20260430T00Z_MSC_GDPS_SpecificHumidity_IsbL-0050_LatLon0.15_PT039H.grib2 2026-04-30 04:05 1.4M
20260430T00Z_MSC_GDPS_SpecificHumidity_IsbL-0100_LatLon0.15_PT039H.grib2 2026-04-30 04:05 1.4M
20260430T00Z_MSC_GDPS_SpecificHumidity_IsbL-0150_LatLon0.15_PT039H.grib2 2026-04-30 04:05 1.3M
20260430T00Z_MSC_GDPS_SpecificHumidity_IsbL-0175_LatLon0.15_PT039H.grib2 2026-04-30 04:05 1.2M
20260430T00Z_MSC_GDPS_SpecificHumidity_IsbL-0200_LatLon0.15_PT039H.grib2 2026-04-30 04:05 1.3M
20260430T00Z_MSC_GDPS_SpecificHumidity_IsbL-0225_LatLon0.15_PT039H.grib2 2026-04-30 04:05 1.3M
20260430T00Z_MSC_GDPS_SpecificHumidity_IsbL-0250_LatLon0.15_PT039H.grib2 2026-04-30 04:05 1.4M
20260430T00Z_MSC_GDPS_SpecificHumidity_IsbL-0275_LatLon0.15_PT039H.grib2 2026-04-30 04:05 1.3M
20260430T00Z_MSC_GDPS_SpecificHumidity_IsbL-0300_LatLon0.15_PT039H.grib2 2026-04-30 04:05 1.2M
20260430T00Z_MSC_GDPS_SpecificHumidity_IsbL-0350_LatLon0.15_PT039H.grib2 2026-04-30 04:05 1.5M
20260430T00Z_MSC_GDPS_SpecificHumidity_IsbL-0400_LatLon0.15_PT039H.grib2 2026-04-30 04:05 1.4M
20260430T00Z_MSC_GDPS_SpecificHumidity_IsbL-0450_LatLon0.15_PT039H.grib2 2026-04-30 04:05 1.6M
20260430T00Z_MSC_GDPS_SpecificHumidity_IsbL-0500_LatLon0.15_PT039H.grib2 2026-04-30 04:05 1.4M
20260430T00Z_MSC_GDPS_SpecificHumidity_IsbL-0550_LatLon0.15_PT039H.grib2 2026-04-30 04:05 1.6M
20260430T00Z_MSC_GDPS_SpecificHumidity_IsbL-0600_LatLon0.15_PT039H.grib2 2026-04-30 04:05 1.7M
20260430T00Z_MSC_GDPS_SpecificHumidity_IsbL-0650_LatLon0.15_PT039H.grib2 2026-04-30 04:05 1.5M
20260430T00Z_MSC_GDPS_SpecificHumidity_IsbL-0700_LatLon0.15_PT039H.grib2 2026-04-30 04:05 1.6M
20260430T00Z_MSC_GDPS_SpecificHumidity_IsbL-0750_LatLon0.15_PT039H.grib2 2026-04-30 04:05 1.7M
20260430T00Z_MSC_GDPS_SpecificHumidity_IsbL-0800_LatLon0.15_PT039H.grib2 2026-04-30 04:05 1.9M
20260430T00Z_MSC_GDPS_SpecificHumidity_IsbL-0850_LatLon0.15_PT039H.grib2 2026-04-30 04:05 1.9M
20260430T00Z_MSC_GDPS_SpecificHumidity_IsbL-0875_LatLon0.15_PT039H.grib2 2026-04-30 04:05 1.9M
20260430T00Z_MSC_GDPS_SpecificHumidity_IsbL-0900_LatLon0.15_PT039H.grib2 2026-04-30 04:05 1.6M
20260430T00Z_MSC_GDPS_SpecificHumidity_IsbL-0925_LatLon0.15_PT039H.grib2 2026-04-30 04:05 1.6M
20260430T00Z_MSC_GDPS_SpecificHumidity_IsbL-0950_LatLon0.15_PT039H.grib2 2026-04-30 04:05 1.6M
20260430T00Z_MSC_GDPS_SpecificHumidity_IsbL-0970_LatLon0.15_PT039H.grib2 2026-04-30 04:05 1.5M
20260430T00Z_MSC_GDPS_SpecificHumidity_IsbL-0985_LatLon0.15_PT039H.grib2 2026-04-30 04:05 1.5M
20260430T00Z_MSC_GDPS_SpecificHumidity_IsbL-1000_LatLon0.15_PT039H.grib2 2026-04-30 04:05 1.5M
20260430T00Z_MSC_GDPS_SpecificHumidity_IsbL-1015_LatLon0.15_PT039H.grib2 2026-04-30 04:05 1.5M
20260430T00Z_MSC_GDPS_SpecificHumidity_Sfc_LatLon0.15_PT039H.grib2 2026-04-30 04:05 673K
20260430T00Z_MSC_GDPS_Thickness_IsbL-0850to0700_LatLon0.15_PT039H.grib2 2026-04-30 04:05 466K
20260430T00Z_MSC_GDPS_Thickness_IsbL-1000to0500_LatLon0.15_PT039H.grib2 2026-04-30 04:05 368K
20260430T00Z_MSC_GDPS_Thickness_IsbL-1000to0850_LatLon0.15_PT039H.grib2 2026-04-30 04:05 489K
20260430T00Z_MSC_GDPS_TotalCloudCover_Sfc_LatLon0.15_PT039H.grib2 2026-04-30 04:05 828K
20260430T00Z_MSC_GDPS_TotalTotalsIndex_Sfc_LatLon0.15_PT039H.grib2 2026-04-30 04:05 6.2M
20260430T00Z_MSC_GDPS_UVIndex-ClearSky_Sfc_LatLon0.15_PT039H.grib2 2026-04-30 04:49 1.0M
20260430T00Z_MSC_GDPS_UVIndex_Sfc_LatLon0.15_PT039H.grib2 2026-04-30 04:49 1.5M
20260430T00Z_MSC_GDPS_UpwardLongwaveRadiationFlux_NTAtm_LatLon0.15_PT039H.grib2 2026-04-30 04:05 843K
20260430T00Z_MSC_GDPS_VerticalVelocity_IsbL-0200_LatLon0.15_PT039H.grib2 2026-04-30 04:05 1.1M
20260430T00Z_MSC_GDPS_VerticalVelocity_IsbL-0250_LatLon0.15_PT039H.grib2 2026-04-30 04:05 1.0M
20260430T00Z_MSC_GDPS_VerticalVelocity_IsbL-0500_LatLon0.15_PT039H.grib2 2026-04-30 04:05 1.0M
20260430T00Z_MSC_GDPS_VerticalVelocity_IsbL-0600_LatLon0.15_PT039H.grib2 2026-04-30 04:05 1.1M
20260430T00Z_MSC_GDPS_VerticalVelocity_IsbL-0700_LatLon0.15_PT039H.grib2 2026-04-30 04:05 1.2M
20260430T00Z_MSC_GDPS_VerticalVelocity_IsbL-0850_LatLon0.15_PT039H.grib2 2026-04-30 04:05 1.4M
20260430T00Z_MSC_GDPS_WindChill_Sfc_LatLon0.15_PT039H.grib2 2026-04-30 04:05 5.3M
20260430T00Z_MSC_GDPS_WindDir_AGL-10m_LatLon0.15_PT039H.grib2 2026-04-30 04:05 1.3M
20260430T00Z_MSC_GDPS_WindDir_AGL-120m_LatLon0.15_PT039H.grib2 2026-04-30 04:05 1.4M
20260430T00Z_MSC_GDPS_WindDir_AGL-40m_LatLon0.15_PT039H.grib2 2026-04-30 04:05 1.4M
20260430T00Z_MSC_GDPS_WindDir_AGL-80m_LatLon0.15_PT039H.grib2 2026-04-30 04:05 1.4M
20260430T00Z_MSC_GDPS_WindDir_IsbL-0001_LatLon0.15_PT039H.grib2 2026-04-30 04:05 673K
20260430T00Z_MSC_GDPS_WindDir_IsbL-0005_LatLon0.15_PT039H.grib2 2026-04-30 04:05 805K
20260430T00Z_MSC_GDPS_WindDir_IsbL-0010_LatLon0.15_PT039H.grib2 2026-04-30 04:05 853K
20260430T00Z_MSC_GDPS_WindDir_IsbL-0020_LatLon0.15_PT039H.grib2 2026-04-30 04:05 954K
20260430T00Z_MSC_GDPS_WindDir_IsbL-0030_LatLon0.15_PT039H.grib2 2026-04-30 04:05 933K
20260430T00Z_MSC_GDPS_WindDir_IsbL-0050_LatLon0.15_PT039H.grib2 2026-04-30 04:05 936K
20260430T00Z_MSC_GDPS_WindDir_IsbL-0100_LatLon0.15_PT039H.grib2 2026-04-30 04:05 1.0M
20260430T00Z_MSC_GDPS_WindDir_IsbL-0150_LatLon0.15_PT039H.grib2 2026-04-30 04:05 1.0M
20260430T00Z_MSC_GDPS_WindDir_IsbL-0175_LatLon0.15_PT039H.grib2 2026-04-30 04:05 1.1M
20260430T00Z_MSC_GDPS_WindDir_IsbL-0200_LatLon0.15_PT039H.grib2 2026-04-30 04:05 1.1M
20260430T00Z_MSC_GDPS_WindDir_IsbL-0225_LatLon0.15_PT039H.grib2 2026-04-30 04:05 1.1M
20260430T00Z_MSC_GDPS_WindDir_IsbL-0250_LatLon0.15_PT039H.grib2 2026-04-30 04:05 1.1M
20260430T00Z_MSC_GDPS_WindDir_IsbL-0275_LatLon0.15_PT039H.grib2 2026-04-30 04:05 1.2M
20260430T00Z_MSC_GDPS_WindDir_IsbL-0300_LatLon0.15_PT039H.grib2 2026-04-30 04:05 1.2M
20260430T00Z_MSC_GDPS_WindDir_IsbL-0350_LatLon0.15_PT039H.grib2 2026-04-30 04:05 1.2M
20260430T00Z_MSC_GDPS_WindDir_IsbL-0400_LatLon0.15_PT039H.grib2 2026-04-30 04:05 1.3M
20260430T00Z_MSC_GDPS_WindDir_IsbL-0450_LatLon0.15_PT039H.grib2 2026-04-30 04:05 1.3M
20260430T00Z_MSC_GDPS_WindDir_IsbL-0500_LatLon0.15_PT039H.grib2 2026-04-30 04:05 1.3M
20260430T00Z_MSC_GDPS_WindDir_IsbL-0550_LatLon0.15_PT039H.grib2 2026-04-30 04:05 1.4M
20260430T00Z_MSC_GDPS_WindDir_IsbL-0600_LatLon0.15_PT039H.grib2 2026-04-30 04:05 1.4M
20260430T00Z_MSC_GDPS_WindDir_IsbL-0650_LatLon0.15_PT039H.grib2 2026-04-30 04:05 1.5M
20260430T00Z_MSC_GDPS_WindDir_IsbL-0700_LatLon0.15_PT039H.grib2 2026-04-30 04:05 1.6M
20260430T00Z_MSC_GDPS_WindDir_IsbL-0750_LatLon0.15_PT039H.grib2 2026-04-30 04:05 1.7M
20260430T00Z_MSC_GDPS_WindDir_IsbL-0800_LatLon0.15_PT039H.grib2 2026-04-30 04:05 1.8M
20260430T00Z_MSC_GDPS_WindDir_IsbL-0850_LatLon0.15_PT039H.grib2 2026-04-30 04:05 1.9M
20260430T00Z_MSC_GDPS_WindDir_IsbL-0875_LatLon0.15_PT039H.grib2 2026-04-30 04:05 2.0M
20260430T00Z_MSC_GDPS_WindDir_IsbL-0900_LatLon0.15_PT039H.grib2 2026-04-30 04:05 2.0M
20260430T00Z_MSC_GDPS_WindDir_IsbL-0925_LatLon0.15_PT039H.grib2 2026-04-30 04:05 2.0M
20260430T00Z_MSC_GDPS_WindDir_IsbL-0950_LatLon0.15_PT039H.grib2 2026-04-30 04:05 2.0M
20260430T00Z_MSC_GDPS_WindDir_IsbL-0970_LatLon0.15_PT039H.grib2 2026-04-30 04:05 2.0M
20260430T00Z_MSC_GDPS_WindDir_IsbL-0985_LatLon0.15_PT039H.grib2 2026-04-30 04:05 2.0M
20260430T00Z_MSC_GDPS_WindDir_IsbL-1000_LatLon0.15_PT039H.grib2 2026-04-30 04:05 2.1M
20260430T00Z_MSC_GDPS_WindDir_IsbL-1015_LatLon0.15_PT039H.grib2 2026-04-30 04:05 2.0M
20260430T00Z_MSC_GDPS_WindGust-Max_AGL-10m_LatLon0.15_PT039H.grib2 2026-04-30 04:05 2.2M
20260430T00Z_MSC_GDPS_WindGust-Min_AGL-10m_LatLon0.15_PT039H.grib2 2026-04-30 04:05 2.2M
20260430T00Z_MSC_GDPS_WindGust_AGL-10m_LatLon0.15_PT039H.grib2 2026-04-30 04:05 2.1M
20260430T00Z_MSC_GDPS_WindSpeed_AGL-10m_LatLon0.15_PT039H.grib2 2026-04-30 04:05 1.1M
20260430T00Z_MSC_GDPS_WindSpeed_AGL-120m_LatLon0.15_PT039H.grib2 2026-04-30 04:05 1.2M
20260430T00Z_MSC_GDPS_WindSpeed_AGL-40m_LatLon0.15_PT039H.grib2 2026-04-30 04:05 1.2M
20260430T00Z_MSC_GDPS_WindSpeed_AGL-80m_LatLon0.15_PT039H.grib2 2026-04-30 04:05 1.2M
20260430T00Z_MSC_GDPS_WindSpeed_IsbL-0001_LatLon0.15_PT039H.grib2 2026-04-30 04:05 646K
20260430T00Z_MSC_GDPS_WindSpeed_IsbL-0005_LatLon0.15_PT039H.grib2 2026-04-30 04:05 694K
20260430T00Z_MSC_GDPS_WindSpeed_IsbL-0010_LatLon0.15_PT039H.grib2 2026-04-30 04:05 628K
20260430T00Z_MSC_GDPS_WindSpeed_IsbL-0020_LatLon0.15_PT039H.grib2 2026-04-30 04:05 863K
20260430T00Z_MSC_GDPS_WindSpeed_IsbL-0030_LatLon0.15_PT039H.grib2 2026-04-30 04:05 868K
20260430T00Z_MSC_GDPS_WindSpeed_IsbL-0050_LatLon0.15_PT039H.grib2 2026-04-30 04:05 907K
20260430T00Z_MSC_GDPS_WindSpeed_IsbL-0100_LatLon0.15_PT039H.grib2 2026-04-30 04:05 1.1M
20260430T00Z_MSC_GDPS_WindSpeed_IsbL-0150_LatLon0.15_PT039H.grib2 2026-04-30 04:05 1.0M
20260430T00Z_MSC_GDPS_WindSpeed_IsbL-0175_LatLon0.15_PT039H.grib2 2026-04-30 04:05 1.0M
20260430T00Z_MSC_GDPS_WindSpeed_IsbL-0200_LatLon0.15_PT039H.grib2 2026-04-30 04:05 1.1M
20260430T00Z_MSC_GDPS_WindSpeed_IsbL-0225_LatLon0.15_PT039H.grib2 2026-04-30 04:05 1.1M
20260430T00Z_MSC_GDPS_WindSpeed_IsbL-0250_LatLon0.15_PT039H.grib2 2026-04-30 04:05 1.1M
20260430T00Z_MSC_GDPS_WindSpeed_IsbL-0275_LatLon0.15_PT039H.grib2 2026-04-30 04:05 1.1M
20260430T00Z_MSC_GDPS_WindSpeed_IsbL-0300_LatLon0.15_PT039H.grib2 2026-04-30 04:05 1.1M
20260430T00Z_MSC_GDPS_WindSpeed_IsbL-0350_LatLon0.15_PT039H.grib2 2026-04-30 04:05 1.1M
20260430T00Z_MSC_GDPS_WindSpeed_IsbL-0400_LatLon0.15_PT039H.grib2 2026-04-30 04:05 1.1M
20260430T00Z_MSC_GDPS_WindSpeed_IsbL-0450_LatLon0.15_PT039H.grib2 2026-04-30 04:05 1.1M
20260430T00Z_MSC_GDPS_WindSpeed_IsbL-0500_LatLon0.15_PT039H.grib2 2026-04-30 04:05 1.1M
20260430T00Z_MSC_GDPS_WindSpeed_IsbL-0550_LatLon0.15_PT039H.grib2 2026-04-30 04:05 1.1M
20260430T00Z_MSC_GDPS_WindSpeed_IsbL-0600_LatLon0.15_PT039H.grib2 2026-04-30 04:05 1.1M
20260430T00Z_MSC_GDPS_WindSpeed_IsbL-0650_LatLon0.15_PT039H.grib2 2026-04-30 04:05 1.5M
20260430T00Z_MSC_GDPS_WindSpeed_IsbL-0700_LatLon0.15_PT039H.grib2 2026-04-30 04:05 1.5M
20260430T00Z_MSC_GDPS_WindSpeed_IsbL-0750_LatLon0.15_PT039H.grib2 2026-04-30 04:05 1.6M
20260430T00Z_MSC_GDPS_WindSpeed_IsbL-0800_LatLon0.15_PT039H.grib2 2026-04-30 04:05 1.7M
20260430T00Z_MSC_GDPS_WindSpeed_IsbL-0850_LatLon0.15_PT039H.grib2 2026-04-30 04:05 1.8M
20260430T00Z_MSC_GDPS_WindSpeed_IsbL-0875_LatLon0.15_PT039H.grib2 2026-04-30 04:05 1.8M
20260430T00Z_MSC_GDPS_WindSpeed_IsbL-0900_LatLon0.15_PT039H.grib2 2026-04-30 04:05 1.8M
20260430T00Z_MSC_GDPS_WindSpeed_IsbL-0925_LatLon0.15_PT039H.grib2 2026-04-30 04:05 1.8M
20260430T00Z_MSC_GDPS_WindSpeed_IsbL-0950_LatLon0.15_PT039H.grib2 2026-04-30 04:05 1.9M
20260430T00Z_MSC_GDPS_WindSpeed_IsbL-0970_LatLon0.15_PT039H.grib2 2026-04-30 04:05 1.9M
20260430T00Z_MSC_GDPS_WindSpeed_IsbL-0985_LatLon0.15_PT039H.grib2 2026-04-30 04:05 1.9M
20260430T00Z_MSC_GDPS_WindSpeed_IsbL-1000_LatLon0.15_PT039H.grib2 2026-04-30 04:05 1.9M
20260430T00Z_MSC_GDPS_WindSpeed_IsbL-1015_LatLon0.15_PT039H.grib2 2026-04-30 04:05 1.8M
20260430T00Z_MSC_GDPS_WindU_AGL-10m_LatLon0.15_PT039H.grib2 2026-04-30 04:05 1.3M
20260430T00Z_MSC_GDPS_WindU_AGL-120m_LatLon0.15_PT039H.grib2 2026-04-30 04:05 1.0M
20260430T00Z_MSC_GDPS_WindU_AGL-40m_LatLon0.15_PT039H.grib2 2026-04-30 04:05 1.0M
20260430T00Z_MSC_GDPS_WindU_AGL-80m_LatLon0.15_PT039H.grib2 2026-04-30 04:05 1.0M
20260430T00Z_MSC_GDPS_WindU_IsbL-0001_LatLon0.15_PT039H.grib2 2026-04-30 04:05 499K
20260430T00Z_MSC_GDPS_WindU_IsbL-0005_LatLon0.15_PT039H.grib2 2026-04-30 04:05 694K
20260430T00Z_MSC_GDPS_WindU_IsbL-0010_LatLon0.15_PT039H.grib2 2026-04-30 04:05 705K
20260430T00Z_MSC_GDPS_WindU_IsbL-0020_LatLon0.15_PT039H.grib2 2026-04-30 04:05 735K
20260430T00Z_MSC_GDPS_WindU_IsbL-0030_LatLon0.15_PT039H.grib2 2026-04-30 04:05 741K
20260430T00Z_MSC_GDPS_WindU_IsbL-0050_LatLon0.15_PT039H.grib2 2026-04-30 04:05 771K
20260430T00Z_MSC_GDPS_WindU_IsbL-0100_LatLon0.15_PT039H.grib2 2026-04-30 04:05 925K
20260430T00Z_MSC_GDPS_WindU_IsbL-0150_LatLon0.15_PT039H.grib2 2026-04-30 04:05 1.0M
20260430T00Z_MSC_GDPS_WindU_IsbL-0175_LatLon0.15_PT039H.grib2 2026-04-30 04:05 1.0M
20260430T00Z_MSC_GDPS_WindU_IsbL-0200_LatLon0.15_PT039H.grib2 2026-04-30 04:05 1.1M
20260430T00Z_MSC_GDPS_WindU_IsbL-0225_LatLon0.15_PT039H.grib2 2026-04-30 04:05 860K
20260430T00Z_MSC_GDPS_WindU_IsbL-0250_LatLon0.15_PT039H.grib2 2026-04-30 04:05 860K
20260430T00Z_MSC_GDPS_WindU_IsbL-0275_LatLon0.15_PT039H.grib2 2026-04-30 04:05 885K
20260430T00Z_MSC_GDPS_WindU_IsbL-0300_LatLon0.15_PT039H.grib2 2026-04-30 04:05 874K
20260430T00Z_MSC_GDPS_WindU_IsbL-0350_LatLon0.15_PT039H.grib2 2026-04-30 04:05 884K
20260430T00Z_MSC_GDPS_WindU_IsbL-0400_LatLon0.15_PT039H.grib2 2026-04-30 04:05 1.1M
20260430T00Z_MSC_GDPS_WindU_IsbL-0450_LatLon0.15_PT039H.grib2 2026-04-30 04:05 1.1M
20260430T00Z_MSC_GDPS_WindU_IsbL-0500_LatLon0.15_PT039H.grib2 2026-04-30 04:05 1.1M
20260430T00Z_MSC_GDPS_WindU_IsbL-0550_LatLon0.15_PT039H.grib2 2026-04-30 04:05 1.1M
20260430T00Z_MSC_GDPS_WindU_IsbL-0600_LatLon0.15_PT039H.grib2 2026-04-30 04:05 1.1M
20260430T00Z_MSC_GDPS_WindU_IsbL-0650_LatLon0.15_PT039H.grib2 2026-04-30 04:05 1.2M
20260430T00Z_MSC_GDPS_WindU_IsbL-0700_LatLon0.15_PT039H.grib2 2026-04-30 04:05 1.2M
20260430T00Z_MSC_GDPS_WindU_IsbL-0750_LatLon0.15_PT039H.grib2 2026-04-30 04:05 1.3M
20260430T00Z_MSC_GDPS_WindU_IsbL-0800_LatLon0.15_PT039H.grib2 2026-04-30 04:05 1.4M
20260430T00Z_MSC_GDPS_WindU_IsbL-0850_LatLon0.15_PT039H.grib2 2026-04-30 04:05 1.4M
20260430T00Z_MSC_GDPS_WindU_IsbL-0875_LatLon0.15_PT039H.grib2 2026-04-30 04:05 1.5M
20260430T00Z_MSC_GDPS_WindU_IsbL-0900_LatLon0.15_PT039H.grib2 2026-04-30 04:05 1.5M
20260430T00Z_MSC_GDPS_WindU_IsbL-0925_LatLon0.15_PT039H.grib2 2026-04-30 04:05 1.5M
20260430T00Z_MSC_GDPS_WindU_IsbL-0950_LatLon0.15_PT039H.grib2 2026-04-30 04:05 1.4M
20260430T00Z_MSC_GDPS_WindU_IsbL-0970_LatLon0.15_PT039H.grib2 2026-04-30 04:05 1.4M
20260430T00Z_MSC_GDPS_WindU_IsbL-0985_LatLon0.15_PT039H.grib2 2026-04-30 04:05 1.4M
20260430T00Z_MSC_GDPS_WindU_IsbL-1000_LatLon0.15_PT039H.grib2 2026-04-30 04:05 1.4M
20260430T00Z_MSC_GDPS_WindU_IsbL-1015_LatLon0.15_PT039H.grib2 2026-04-30 04:05 1.4M
20260430T00Z_MSC_GDPS_WindV_AGL-10m_LatLon0.15_PT039H.grib2 2026-04-30 04:05 1.3M
20260430T00Z_MSC_GDPS_WindV_AGL-120m_LatLon0.15_PT039H.grib2 2026-04-30 04:05 1.0M
20260430T00Z_MSC_GDPS_WindV_AGL-40m_LatLon0.15_PT039H.grib2 2026-04-30 04:05 972K
20260430T00Z_MSC_GDPS_WindV_AGL-80m_LatLon0.15_PT039H.grib2 2026-04-30 04:05 1.0M
20260430T00Z_MSC_GDPS_WindV_IsbL-0001_LatLon0.15_PT039H.grib2 2026-04-30 04:05 778K
20260430T00Z_MSC_GDPS_WindV_IsbL-0005_LatLon0.15_PT039H.grib2 2026-04-30 04:05 765K
20260430T00Z_MSC_GDPS_WindV_IsbL-0010_LatLon0.15_PT039H.grib2 2026-04-30 04:05 799K
20260430T00Z_MSC_GDPS_WindV_IsbL-0020_LatLon0.15_PT039H.grib2 2026-04-30 04:05 854K
20260430T00Z_MSC_GDPS_WindV_IsbL-0030_LatLon0.15_PT039H.grib2 2026-04-30 04:05 857K
20260430T00Z_MSC_GDPS_WindV_IsbL-0050_LatLon0.15_PT039H.grib2 2026-04-30 04:05 905K
20260430T00Z_MSC_GDPS_WindV_IsbL-0100_LatLon0.15_PT039H.grib2 2026-04-30 04:05 1.1M
20260430T00Z_MSC_GDPS_WindV_IsbL-0150_LatLon0.15_PT039H.grib2 2026-04-30 04:05 1.0M
20260430T00Z_MSC_GDPS_WindV_IsbL-0175_LatLon0.15_PT039H.grib2 2026-04-30 04:05 1.0M
20260430T00Z_MSC_GDPS_WindV_IsbL-0200_LatLon0.15_PT039H.grib2 2026-04-30 04:05 849K
20260430T00Z_MSC_GDPS_WindV_IsbL-0225_LatLon0.15_PT039H.grib2 2026-04-30 04:05 855K
20260430T00Z_MSC_GDPS_WindV_IsbL-0250_LatLon0.15_PT039H.grib2 2026-04-30 04:05 855K
20260430T00Z_MSC_GDPS_WindV_IsbL-0275_LatLon0.15_PT039H.grib2 2026-04-30 04:05 879K
20260430T00Z_MSC_GDPS_WindV_IsbL-0300_LatLon0.15_PT039H.grib2 2026-04-30 04:05 867K
20260430T00Z_MSC_GDPS_WindV_IsbL-0350_LatLon0.15_PT039H.grib2 2026-04-30 04:05 875K
20260430T00Z_MSC_GDPS_WindV_IsbL-0400_LatLon0.15_PT039H.grib2 2026-04-30 04:05 878K
20260430T00Z_MSC_GDPS_WindV_IsbL-0450_LatLon0.15_PT039H.grib2 2026-04-30 04:05 1.1M
20260430T00Z_MSC_GDPS_WindV_IsbL-0500_LatLon0.15_PT039H.grib2 2026-04-30 04:05 1.1M
20260430T00Z_MSC_GDPS_WindV_IsbL-0550_LatLon0.15_PT039H.grib2 2026-04-30 04:05 1.1M
20260430T00Z_MSC_GDPS_WindV_IsbL-0600_LatLon0.15_PT039H.grib2 2026-04-30 04:05 1.1M
20260430T00Z_MSC_GDPS_WindV_IsbL-0650_LatLon0.15_PT039H.grib2 2026-04-30 04:05 1.2M
20260430T00Z_MSC_GDPS_WindV_IsbL-0700_LatLon0.15_PT039H.grib2 2026-04-30 04:05 1.2M
20260430T00Z_MSC_GDPS_WindV_IsbL-0750_LatLon0.15_PT039H.grib2 2026-04-30 04:05 1.3M
20260430T00Z_MSC_GDPS_WindV_IsbL-0800_LatLon0.15_PT039H.grib2 2026-04-30 04:05 1.3M
20260430T00Z_MSC_GDPS_WindV_IsbL-0850_LatLon0.15_PT039H.grib2 2026-04-30 04:05 1.4M
20260430T00Z_MSC_GDPS_WindV_IsbL-0875_LatLon0.15_PT039H.grib2 2026-04-30 04:05 1.5M
20260430T00Z_MSC_GDPS_WindV_IsbL-0900_LatLon0.15_PT039H.grib2 2026-04-30 04:05 1.5M
20260430T00Z_MSC_GDPS_WindV_IsbL-0925_LatLon0.15_PT039H.grib2 2026-04-30 04:05 1.5M
20260430T00Z_MSC_GDPS_WindV_IsbL-0950_LatLon0.15_PT039H.grib2 2026-04-30 04:05 1.4M
20260430T00Z_MSC_GDPS_WindV_IsbL-0970_LatLon0.15_PT039H.grib2 2026-04-30 04:05 1.4M
20260430T00Z_MSC_GDPS_WindV_IsbL-0985_LatLon0.15_PT039H.grib2 2026-04-30 04:05 1.4M
20260430T00Z_MSC_GDPS_WindV_IsbL-1000_LatLon0.15_PT039H.grib2 2026-04-30 04:05 1.4M
20260430T00Z_MSC_GDPS_WindV_IsbL-1015_LatLon0.15_PT039H.grib2 2026-04-30 04:05 1.4M